When you browse on this site, cookies collect data to enhance your experience and personalize the content and advertising you see.
Visit our Privacy Policy to learn more. By continuing to use the site, you agree to this use of cookies and data.

Stündliche Wetter Cayenne

Heute, 16 Juli, Donnerstag

Zeit Temperatur Niederschläge Wind Luftdruck Luftfeuchtigkeit
00:00 +26°C° 0 mm 3 m/S 759 mmHg 95%
01:00 +25°C° 0.1 mm 3 m/S 758 mmHg 96%
02:00 +25°C° 0.1 mm 3 m/S 758 mmHg 97%
03:00 +25°C° 0 mm 3 m/S 757 mmHg 97%
04:00 +25°C° 0.3 mm 3 m/S 757 mmHg 97%
05:00 +25°C° 0.3 mm 3 m/S 757 mmHg 97%
06:00 +25°C° 0.3 mm 3 m/S 758 mmHg 97%
07:00 +26°C° 0 mm 3 m/S 758 mmHg 94%
08:00 +27°C° 0 mm 3 m/S 759 mmHg 91%
09:00 +28°C° 0 mm 2 m/S 759 mmHg 88%
10:00 +30°C° 0 mm 3 m/S 759 mmHg 78%
11:00 +33°C° 0 mm 3 m/S 759 mmHg 67%
12:00 +34°C° 0 mm 3 m/S 759 mmHg 57%
13:00 +33°C° 0.2 mm 3 m/S 758 mmHg 64%
14:00 +33°C° 0.2 mm 4 m/S 758 mmHg 71%
15:00 +32°C° 0.2 mm 4 m/S 757 mmHg 77%
16:00 +30°C° 0.2 mm 4 m/S 757 mmHg 81%
17:00 +29°C° 0.2 mm 4 m/S 757 mmHg 85%
18:00 +28°C° 0.2 mm 4 m/S 757 mmHg 89%
19:00 +28°C° 0 mm 4 m/S 757 mmHg 90%
20:00 +27°C° 0 mm 4 m/S 758 mmHg 91%
21:00 +26°C° 0 mm 4 m/S 758 mmHg 92%
22:00 +26°C° 0 mm 4 m/S 758 mmHg 93%
23:00 +26°C° 0 mm 4 m/S 758 mmHg 93%

Morgen, 17 Juli, Freitag

Zeit Temperatur Niederschläge Wind Luftdruck Luftfeuchtigkeit
00:00 +26°C° 0 mm 3 m/S 759 mmHg 94%
01:00 +25°C° 0 mm 3 m/S 758 mmHg 95%
02:00 +25°C° 0 mm 3 m/S 758 mmHg 96%
03:00 +25°C° 0 mm 3 m/S 758 mmHg 97%
04:00 +25°C° 0 mm 3 m/S 758 mmHg 97%
05:00 +24°C° 0 mm 3 m/S 758 mmHg 97%
06:00 +24°C° 0 mm 3 m/S 758 mmHg 97%
07:00 +26°C° 0.1 mm 3 m/S 758 mmHg 93%
08:00 +27°C° 0.1 mm 3 m/S 758 mmHg 90%
09:00 +28°C° 0.1 mm 3 m/S 759 mmHg 86%
10:00 +30°C° 0 mm 4 m/S 759 mmHg 77%
11:00 +33°C° 0 mm 4 m/S 758 mmHg 67%
12:00 +34°C° 0 mm 4 m/S 758 mmHg 58%
13:00 +33°C° 0.4 mm 4 m/S 758 mmHg 65%
14:00 +32°C° 0.4 mm 4 m/S 757 mmHg 73%
15:00 +32°C° 0.4 mm 4 m/S 757 mmHg 80%
16:00 +30°C° 0.3 mm 4 m/S 757 mmHg 83%
17:00 +29°C° 0.3 mm 4 m/S 756 mmHg 85%
18:00 +29°C° 0.3 mm 3 m/S 756 mmHg 88%
19:00 +28°C° 0 mm 3 m/S 757 mmHg 89%
20:00 +27°C° 0 mm 4 m/S 758 mmHg 90%
21:00 +26°C° 0 mm 4 m/S 758 mmHg 91%
22:00 +26°C° 0.1 mm 4 m/S 758 mmHg 92%
23:00 +26°C° 0.1 mm 4 m/S 758 mmHg 92%

übermorgen, 18 Juli, Samstag

Zeit Temperatur Niederschläge Wind Luftdruck Luftfeuchtigkeit
00:00 +25°C° 0.1 mm 4 m/S 758 mmHg 93%
01:00 +25°C° 0 mm 4 m/S 758 mmHg 93%
02:00 +25°C° 0 mm 3 m/S 758 mmHg 94%
03:00 +25°C° 0 mm 3 m/S 757 mmHg 95%
04:00 +25°C° 0 mm 3 m/S 757 mmHg 95%
05:00 +24°C° 0 mm 3 m/S 757 mmHg 95%
06:00 +24°C° 0 mm 3 m/S 757 mmHg 96%
07:00 +26°C° 0.1 mm 3 m/S 757 mmHg 90%
08:00 +28°C° 0.1 mm 3 m/S 758 mmHg 85%
09:00 +29°C° 0.1 mm 3 m/S 758 mmHg 79%
10:00 +30°C° 0.1 mm 3 m/S 758 mmHg 75%
11:00 +32°C° 0.1 mm 4 m/S 758 mmHg 70%
12:00 +33°C° 0.1 mm 4 m/S 758 mmHg 66%
13:00 +32°C° 0.6 mm 4 m/S 757 mmHg 72%
14:00 +32°C° 0.6 mm 4 m/S 757 mmHg 78%
15:00 +30°C° 0.6 mm 4 m/S 756 mmHg 84%
16:00 +29°C° 0.3 mm 4 m/S 756 mmHg 86%
17:00 +29°C° 0.3 mm 4 m/S 756 mmHg 89%
18:00 +28°C° 0.3 mm 3 m/S 756 mmHg 91%
19:00 +27°C° 0.4 mm 3 m/S 757 mmHg 92%
20:00 +27°C° 0.4 mm 3 m/S 757 mmHg 93%
21:00 +26°C° 0.4 mm 3 m/S 757 mmHg 95%
22:00 +26°C° 0.4 mm 3 m/S 758 mmHg 95%
23:00 +25°C° 0.4 mm 3 m/S 758 mmHg 96%

19 Juli, Sonntag

Zeit Temperatur Niederschläge Wind Luftdruck Luftfeuchtigkeit
00:00 +25°C° 0.4 mm 3 m/S 758 mmHg 96%
01:00 +25°C° 0.3 mm 3 m/S 757 mmHg 96%
02:00 +25°C° 0.3 mm 3 m/S 757 mmHg 96%
03:00 +25°C° 0.3 mm 3 m/S 756 mmHg 97%
04:00 +25°C° 0.9 mm 3 m/S 757 mmHg 97%
05:00 +24°C° 0.9 mm 3 m/S 757 mmHg 97%
06:00 +24°C° 0.9 mm 3 m/S 757 mmHg 97%
07:00 +26°C° 0.6 mm 3 m/S 757 mmHg 95%
08:00 +27°C° 0.6 mm 3 m/S 757 mmHg 93%
09:00 +28°C° 0.6 mm 3 m/S 758 mmHg 92%
10:00 +28°C° 1 mm 3 m/S 758 mmHg 91%
11:00 +29°C° 1 mm 3 m/S 758 mmHg 90%
12:00 +29°C° 1 mm 3 m/S 758 mmHg 89%
13:00 +29°C° 0.8 mm 3 m/S 757 mmHg 87%
14:00 +30°C° 0.8 mm 3 m/S 757 mmHg 84%
15:00 +30°C° 0.8 mm 4 m/S 756 mmHg 81%
16:00 +29°C° 0.5 mm 3 m/S 756 mmHg 85%
17:00 +28°C° 0.5 mm 3 m/S 756 mmHg 89%
18:00 +27°C° 0.5 mm 3 m/S 756 mmHg 92%
19:00 +26°C° 0.4 mm 3 m/S 756 mmHg 94%
20:00 +26°C° 0.4 mm 3 m/S 757 mmHg 95%
21:00 +25°C° 0.4 mm 3 m/S 757 mmHg 96%
22:00 +25°C° 0.8 mm 3 m/S 757 mmHg 96%
23:00 +25°C° 0.8 mm 3 m/S 757 mmHg 96%

20 Juli, Montag

Zeit Temperatur Niederschläge Wind Luftdruck Luftfeuchtigkeit
00:00 +25°C° 0.8 mm 3 m/S 757 mmHg 97%
01:00 +25°C° 1.1 mm 3 m/S 757 mmHg 97%
02:00 +24°C° 1.1 mm 3 m/S 757 mmHg 97%
03:00 +24°C° 1.1 mm 3 m/S 756 mmHg 97%
04:00 +24°C° 1.1 mm 3 m/S 756 mmHg 97%
05:00 +24°C° 1.1 mm 2 m/S 756 mmHg 97%
06:00 +24°C° 1.1 mm 2 m/S 756 mmHg 97%
07:00 +25°C° 0.8 mm 2 m/S 757 mmHg 97%
08:00 +25°C° 0.8 mm 2 m/S 757 mmHg 96%
09:00 +25°C° 0.8 mm 2 m/S 758 mmHg 96%
10:00 +26°C° 0.6 mm 1 m/S 758 mmHg 95%
11:00 +27°C° 0.6 mm 1 m/S 758 mmHg 94%
12:00 +28°C° 0.6 mm 1 m/S 757 mmHg 93%
13:00 +28°C° 1.1 mm 1 m/S 757 mmHg 93%
14:00 +28°C° 1.1 mm 2 m/S 757 mmHg 93%
15:00 +28°C° 1.1 mm 2 m/S 756 mmHg 93%
16:00 +27°C° 0.9 mm 2 m/S 756 mmHg 93%
17:00 +27°C° 0.9 mm 3 m/S 756 mmHg 94%
18:00 +27°C° 0.9 mm 3 m/S 756 mmHg 94%
19:00 +26°C° 0.8 mm 3 m/S 756 mmHg 94%
20:00 +26°C° 0.8 mm 3 m/S 757 mmHg 95%
21:00 +25°C° 0.8 mm 3 m/S 757 mmHg 95%
22:00 +25°C° 0.5 mm 3 m/S 757 mmHg 96%
23:00 +25°C° 0.5 mm 3 m/S 758 mmHg 96%

21 Juli, Dienstag

Zeit Temperatur Niederschläge Wind Luftdruck Luftfeuchtigkeit
00:00 +25°C° 0.5 mm 3 m/S 758 mmHg 96%
01:00 +25°C° 0.4 mm 3 m/S 757 mmHg 96%
02:00 +24°C° 0.4 mm 3 m/S 757 mmHg 96%
03:00 +24°C° 0.4 mm 3 m/S 756 mmHg 96%
04:00 +24°C° 0.4 mm 3 m/S 756 mmHg 96%
05:00 +24°C° 0.4 mm 2 m/S 756 mmHg 96%
06:00 +24°C° 0.4 mm 2 m/S 757 mmHg 96%
07:00 +25°C° 1.9 mm 2 m/S 757 mmHg 97%
08:00 +25°C° 1.9 mm 2 m/S 757 mmHg 97%
09:00 +25°C° 1.9 mm 3 m/S 758 mmHg 98%
10:00 +26°C° 1.2 mm 2 m/S 758 mmHg 96%
11:00 +27°C° 1.2 mm 2 m/S 758 mmHg 95%
12:00 +27°C° 1.2 mm 2 m/S 758 mmHg 94%
13:00 +28°C° 0.9 mm 2 m/S 757 mmHg 91%
14:00 +28°C° 0.9 mm 1 m/S 757 mmHg 89%
15:00 +29°C° 0.9 mm 1 m/S 756 mmHg 86%
16:00 +28°C° 0.6 mm 1 m/S 756 mmHg 88%
17:00 +28°C° 0.6 mm 1 m/S 756 mmHg 91%
18:00 +28°C° 0.6 mm 1 m/S 756 mmHg 93%
19:00 +27°C° 0.3 mm 1 m/S 757 mmHg 93%
20:00 +26°C° 0.3 mm 2 m/S 757 mmHg 94%
21:00 +25°C° 0.3 mm 2 m/S 757 mmHg 94%
22:00 +25°C° 0.7 mm 2 m/S 758 mmHg 94%
23:00 +24°C° 0.7 mm 2 m/S 758 mmHg 95%
Mehr zeigen